This is the latest recevied weather packets stored in our database for station/object WB3IGR. If no packets are shown the sender has not sent any weather packets the latest 10 day(s).
| Time | Temp. | Humidity | Pressure | Rain* | Wind** | Luminosity | Snow |
|---|---|---|---|---|---|---|---|
| 1777609648 | 6.11° C | 90% | 1014.8 hPa | 0 mm | - | 0 W/m² | - |
| 1777609346 | 6.11° C | 89% | 1014.5 hPa | 0 mm | - | 0 W/m² | - |
| 1777609043 | 6.67° C | 87% | 1014.6 hPa | 0 mm | - | 0 W/m² | - |
| 1777608740 | 6.67° C | 86% | 1014.4 hPa | 0 mm | - | 0 W/m² | - |
| 1777608436 | 7.22° C | 85% | 1014.3 hPa | 0 mm | - | 0 W/m² | - |
| 1777608135 | 7.22° C | 85% | 1014.4 hPa | 0 mm | - | 0 W/m² | - |
| 1777607831 | 7.22° C | 85% | 1014.5 hPa | 0 mm | - | 0 W/m² | - |
| 1777607527 | 7.22° C | 86% | 1014.6 hPa | 0 mm | - | 0 W/m² | - |
| 1777607224 | 6.67° C | 87% | 1014.6 hPa | 0 mm | - | 0 W/m² | - |
| 1777606920 | 6.67° C | 87% | 1014.5 hPa | 0 mm | - | 0 W/m² | - |
| 1777606615 | 7.22° C | 86% | 1014.6 hPa | 0 mm | - | 0 W/m² | - |
| 1777606311 | 7.78° C | 83% | 1014.5 hPa | 0 mm | - | 0 W/m² | - |
| 1777606006 | 7.78° C | 83% | 1014.6 hPa | 0 mm | - | 0 W/m² | - |
| 1777605703 | 7.78° C | 83% | 1014.4 hPa | 0 mm | - | 0 W/m² | - |
| 1777605402 | 7.78° C | 82% | 1014.5 hPa | 0 mm | - | 0 W/m² | - |
| 1777605098 | 7.78° C | 83% | 1014.7 hPa | 0 mm | - | 0 W/m² | - |
| 1777604794 | 8.33° C | 82% | 1014.7 hPa | 0 mm | - | 0 W/m² | - |
| 1777604491 | 8.33° C | 81% | 1014.7 hPa | 0 mm | - | 0 W/m² | - |
| 1777604185 | 8.89° C | 81% | 1014.7 hPa | 0 mm | - | 0 W/m² | - |
| 1777603882 | 8.33° C | 82% | 1014.6 hPa | 0 mm | - | 0 W/m² | - |
| 1777603579 | 8.33° C | 81% | 1014.7 hPa | 0 mm | - | 0 W/m² | - |
| 1777603274 | 8.89° C | 81% | 1014.8 hPa | 0 mm | - | 0 W/m² | - |
| 1777602970 | 8.89° C | 81% | 1014.9 hPa | 0 mm | - | 0 W/m² | - |
| 1777602665 | 8.89° C | 80% | 1014.7 hPa | 0 mm | - | 0 W/m² | - |
| 1777602360 | 8.89° C | 80% | 1014.8 hPa | 0 mm | - | 0 W/m² | - |
* Rain latest hour (hover to see other rain measurements)
** Current wind speed in m/s (hover to see current wind gust speed)